Location: Geremba
(10.4250°N, 67.2394°W)
Time: 22:28:58
(UTC+00:00)

Cosmos 2341 Rocket - Pass Details

Date: 23 May 2024
Orbit: 968 x 1004 km, 82.9° (Epoch: 25 June)

Event Time Altitude Azimuth Distance (km) Brightness Sun altitude
Exits shadow 08:43:05 32° 229° (SW) 1,634 4.6 -19.5°
Maximum altitude 08:45:22 43° 274° (W) 1,345 4.3 -19.0°
Drops below altitude 10° 08:51:15 10° 345° (NNW) 2,724 6.5 -17.7°
Sets 08:53:53 0° 352° (N) 3,666 7.2 -17.2°
